User: anonymous   Login
Location: Unspecified
(0.0000°N, 0.0000°E)
Time: 03:57:19
(UTC+00:00)
Language:

Optus B1 - Orbit

View from above orbital plane
View from above orbital plane
View from above satellite
View from above satellite

Ground track
Ground track

The orbit data is extracted from the following two-line orbital elements,

1 22087U 92054A   16178.09607981 -.00000234  00000-0  00000+0 0  9991
2 22087   8.1572  48.8251 0009246  49.7043 159.0066  0.99205801 98569
Epoch (UTC): 26 June 2016 02:18:21
Eccentricity: 0.0009246
inclination: 8.1572°
perigee height: 36048 km
apogee height: 36127 km
right ascension of ascending node: 48.8251°
argument of perigee: 49.7043°
revolutions per day: 0.99205801
mean anomaly at epoch: 159.0066°
orbit number at epoch: 9856

The dashed part of the orbit path shows where the satellite is in the earth's shadow,  

DLR